Regional Weather Roundup
Issued by NWS Newport/Morehead, NC

Current Version | Previous Version | Text Only | Print | Product List | Glossary On
Versions: 1 2 3 4 5 6 7 8 9 10 11 12 13 14 15 16 17 18 19 20 21 22 23 24 25 26 27 28 29 30 31 32 33 34 35 36 37 38 39 40 41 42 43 44 45 46 47 48 49 50
461 ASUS42 KMHX 302213 RWRMHX WEATHER ROUNDUP FOR EASTERN NORTH CAROLINA NATIONAL WEATHER SERVICE NEWPORT/MOREHEAD CITY NC 600 PM EDT FRI SEP 30 2016 NOTE: "FAIR" INDICATES FEW OR NO CLOUDS BELOW 12,000 FEET WITH NO SIGNIFICANT WEATHER AND/OR OBSTRUCTIONS TO VISIBILITY NCZ015>017-031-032-045>047-102-103-302300- NORTH COAST CITY SKY/WX TMP DP RH WIND PRES REMARKS EDENTON CLOUDY 78 78 100 S6 30.01F ELIZABETH CITY LGT RAIN 77 74 90 SE6 30.02S KITTY HAWK CLOUDY 78 75 90 SE6 30.00F MANTEO DRIZZLE 77 74 91 S9 30.02F $$ NCZ045>047-081-094-103-104-302300- CENTRAL COAST CITY SKY/WX TMP DP RH WIND PRES REMARKS FRISCO LGT RAIN 75 71 87 SE15 30.03F $$ NCZ095-097-098-100-101-302300- SOUTHERN COAST CITY SKY/WX TMP DP RH WIND PRES REMARKS BEAUFORT CLOUDY 76 72 87 SE9 30.02R CEDAR ISLAND NOT AVBL JACKSONVILLE CLOUDY 78 72 81 SE6 29.99R PINEY ISLAND CLOUDY N/A N/A N/A S8 30.01 WILMINGTON CLOUDY 78 74 87 E6 29.98S $$ NCZ011>013-027>030-043-044-078>080-089-090>093-098-302300- COASTAL PLAIN CITY SKY/WX TMP DP RH WIND PRES REMARKS AHOSKIE CLOUDY 76 73 88 SE5 30.01R CLINTON CLOUDY 71 71 99 E5 29.99R ELIZABETHTOWN NOT AVBL GOLDSBORO CLOUDY 77 75 94 S1 29.98R GREENVILLE PTSUNNY 79 72 78 SE9 30.01R HAVELOCK CLOUDY 74 71 91 SE8 30.02R KENANSVILLE MOSUNNY 75 72 88 CALM 30.00R KINSTON NOT AVBL NEW BERN CLOUDY 76 72 87 SE3 30.01R RICHLANDS CLOUDY 77 73 87 SE6 30.01R ROCKY MOUNT PTSUNNY 77 73 87 CALM 30.00R WASHINGTON MOCLDY 75 71 89 SE5 30.01R WHITEVILLE NOT AVBL $$ AMZ130-135-150-152-154-156-158-170-250-252-270-ANZ085-086-088-633-658-670-302300- MARINE OBSERVATIONS STATION/POSITION TIME TEMP WIND PRES WAVE SWELL AIR SEA DIR/SP/G HT/PER HT/PER (UTC) (F) (DEG/KT/KT) (MB) (FT/S) (FT/S) CHESAPEAKE LIGHT NOT AVBL 64 E VA BEACH 2150 76 75 110/ 8/ 10 1017.1 7/11 7/11 DUCK 2148 77 77 140/ 14/ 17 1015.6 2 E DUCK 2141 76 N/A 5/10 2/11 OREGON INLET 2142 77 78 130/ 8/ 12 1016.5 13E OREGON INLT 2130 76 N/A 5/11 5/11 HATTERAS CG 2148 76 79 140/ 10/ 12 1016.5 DIAMOND BUOY 2150 76 77 180/ 2/ 6 1017.5 5/10 5/10 CAPE LOOKOUT 2200 76 110/ 14/ 16 1016.3 BEAUFORT LAB 2148 76 77 130/ 12/ 13 1015.7 30 SE NEW RVR IN 2108 78 82 140/ 10/ 16 1016.0 30 SE NEW RVR IN 2155 82 N/A 5/ 6 2/11 27 SE WRIGHTSVLE 2108 81 81 190/ 12/ 16 1016.8 5 SE WRIGHTSVLE 2108 79 80 110/ 10/ 14 1016.2 225 S CAPE HAT 2150 82 83 160/ 12/ 14 1018.0 4/ 9 3/ 9 41 SE CHARLESTON 2150 82 83 210/ 10/ 12 1014.2 3/ 5 2/ 5 $$

USA.gov is the U.S. government's official web portal to all federal, state and local government web resources and services.